TimeMDT,TemperatureF,Dew PointF,Humidity,Sea Level PressureIn,VisibilityMPH,Wind Direction,Wind SpeedMPH,Gust SpeedMPH,PrecipitationIn,Events,Conditions,WindDirDegrees,DateUTC
12:53 AM,7.0,3.0,84,30.20,10.0,Calm,Calm,-,N/A,,Clear,0,2013-03-27 06:53:00
1:53 AM,6.1,1.9,83,30.20,10.0,Calm,Calm,-,N/A,,Clear,0,2013-03-27 07:53:00
2:53 AM,3.9,-0.0,84,30.19,10.0,Calm,Calm,-,N/A,,Clear,0,2013-03-27 08:53:00
3:11 AM,6.8,1.4,79,30.08,10.0,Calm,Calm,-,N/A,,Partly Cloudy,0,2013-03-27 09:11:00
3:36 AM,3.2,-0.4,85,30.08,10.0,Calm,Calm,-,N/A,,Mostly Cloudy,0,2013-03-27 09:36:00
3:53 AM,5.0,-0.0,80,30.19,10.0,Calm,Calm,-,N/A,,Mostly Cloudy,0,2013-03-27 09:53:00
4:53 AM,3.0,-0.9,84,30.20,9.0,Calm,Calm,-,N/A,,Scattered Clouds,0,2013-03-27 10:53:00
5:53 AM,1.0,-2.9,83,30.20,10.0,NE,5.8,-,N/A,,Partly Cloudy,50,2013-03-27 11:53:00
6:06 AM,1.4,-2.2,85,30.09,10.0,ENE,5.8,-,N/A,,Mostly Cloudy,60,2013-03-27 12:06:00
6:37 AM,1.4,-2.2,85,30.10,10.0,ENE,5.8,-,N/A,,Scattered Clouds,60,2013-03-27 12:37:00
6:53 AM,1.9,-2.0,83,30.22,8.0,East,4.6,-,N/A,,Scattered Clouds,90,2013-03-27 12:53:00
7:10 AM,1.4,-2.2,85,30.10,5.0,ESE,5.8,-,N/A,,Mostly Cloudy,110,2013-03-27 13:10:00
7:24 AM,3.2,-0.4,85,30.10,1.8,ENE,5.8,-,N/A,,Overcast,70,2013-03-27 13:24:00
7:34 AM,3.2,1.4,92,30.11,1.0,ENE,4.6,-,N/A,,Overcast,70,2013-03-27 13:34:00
7:42 AM,3.2,1.4,92,30.10,2.0,ENE,6.9,-,N/A,,Overcast,70,2013-03-27 13:42:00
7:53 AM,3.9,1.0,88,30.24,2.5,ENE,5.8,-,N/A,,Overcast,70,2013-03-27 13:53:00
8:03 AM,5.0,1.4,85,30.11,1.8,ENE,8.1,-,N/A,,Overcast,60,2013-03-27 14:03:00
8:11 AM,6.8,3.2,85,30.11,2.0,ENE,6.9,-,N/A,,Overcast,70,2013-03-27 14:11:00
8:18 AM,6.8,3.2,85,30.12,1.0,ENE,5.8,-,N/A,,Overcast,70,2013-03-27 14:18:00
8:25 AM,6.8,3.2,85,30.12,0.5,ENE,6.9,-,N/A,Fog,Light Freezing Fog,70,2013-03-27 14:25:00
8:30 AM,6.8,3.2,85,30.12,1.2,East,5.8,-,N/A,,Overcast,80,2013-03-27 14:30:00
8:42 AM,6.8,3.2,85,30.12,2.5,East,4.6,-,N/A,,Overcast,80,2013-03-27 14:42:00
8:53 AM,7.0,3.0,84,30.25,2.5,ENE,6.9,-,N/A,,Overcast,70,2013-03-27 14:53:00
9:15 AM,8.6,5.0,85,30.12,1.5,ENE,5.8,-,0.00,Snow,Light Snow,60,2013-03-27 15:15:00
9:34 AM,8.6,6.8,92,30.12,2.0,ENE,5.8,-,0.00,,Overcast,60,2013-03-27 15:34:00
9:46 AM,10.4,6.8,85,30.12,1.2,ENE,5.8,-,0.00,Snow,Light Snow,60,2013-03-27 15:46:00
9:53 AM,10.9,7.0,84,30.25,1.0,ENE,5.8,-,0.00,Snow,Light Snow,70,2013-03-27 15:53:00
10:12 AM,12.2,8.6,85,30.12,1.5,ENE,8.1,-,0.00,Snow,Light Snow,70,2013-03-27 16:12:00
10:30 AM,12.2,8.6,85,30.13,2.5,ENE,8.1,-,0.00,,Overcast,60,2013-03-27 16:30:00
10:38 AM,12.2,8.6,85,30.12,4.0,East,6.9,-,0.00,,Overcast,80,2013-03-27 16:38:00
10:53 AM,12.9,9.0,84,30.25,5.0,ENE,6.9,-,0.00,,Overcast,70,2013-03-27 16:53:00
11:15 AM,15.8,10.4,79,30.12,9.0,ENE,6.9,-,N/A,,Scattered Clouds,70,2013-03-27 17:15:00
11:53 AM,17.1,12.0,81,30.25,10.0,East,5.8,-,N/A,,Partly Cloudy,80,2013-03-27 17:53:00
12:53 PM,21.9,15.1,75,30.24,10.0,ENE,6.9,-,N/A,,Clear,70,2013-03-27 18:53:00
1:53 PM,25.0,19.0,78,30.22,10.0,East,6.9,-,N/A,,Clear,80,2013-03-27 19:53:00
2:53 PM,28.0,21.0,75,30.21,10.0,East,8.1,-,N/A,,Clear,90,2013-03-27 20:53:00
3:53 PM,30.0,23.0,75,30.20,10.0,East,8.1,-,N/A,,Clear,80,2013-03-27 21:53:00
4:53 PM,30.0,23.0,75,30.20,10.0,East,9.2,-,N/A,,Clear,90,2013-03-27 22:53:00
5:53 PM,30.0,23.0,75,30.20,10.0,East,9.2,-,N/A,,Clear,80,2013-03-27 23:53:00
6:53 PM,27.0,21.0,78,30.22,10.0,East,10.4,-,N/A,,Clear,90,2013-03-28 00:53:00
7:53 PM,23.0,19.0,85,30.22,10.0,East,10.4,-,N/A,,Clear,80,2013-03-28 01:53:00
8:53 PM,19.9,17.1,89,30.23,9.0,ENE,9.2,-,N/A,,Clear,70,2013-03-28 02:53:00
9:53 PM,19.0,15.1,85,30.24,9.0,East,8.1,-,N/A,,Clear,90,2013-03-28 03:53:00
10:53 PM,17.1,14.0,88,30.24,9.0,East,5.8,-,N/A,,Clear,100,2013-03-28 04:53:00
11:53 PM,16.0,12.0,84,30.24,8.0,ENE,4.6,-,N/A,,Clear,70,2013-03-28 05:53:00